When you browse on this site, cookies collect data to enhance your experience and personalize the content and advertising you see.
Visit our Privacy Policy to learn more. By continuing to use the site, you agree to this use of cookies and data.
  • în România
  • Lista ţărilor
  • Pe 7 zile
  • Temperatura apei
  • Hartă satelitară
  • Meteo pe hartă
  • Widget-uri
  • user-avatar
    Intrare

    Meteo pe oră la Borodynovka

    Astăzi, 23 Aprilie, Marţi

    Timp Temperatura Precipitaţii Vânt Presiune Umiditate
    00:00 +3°C° 0 mm 3 m/s 737 mmHg 86%
    01:00 +4°C° 0 mm 2 m/s 738 mmHg 86%
    02:00 +3°C° 0 mm 2 m/s 738 mmHg 87%
    03:00 +3°C° 0 mm 2 m/s 738 mmHg 88%
    04:00 +4°C° 0 mm 1 m/s 738 mmHg 86%
    05:00 +4°C° 0 mm 1 m/s 738 mmHg 85%
    06:00 +4°C° 0 mm 1 m/s 739 mmHg 83%
    07:00 +5°C° 0 mm 2 m/s 739 mmHg 72%
    08:00 +7°C° 0 mm 2 m/s 739 mmHg 61%
    09:00 +9°C° 0 mm 3 m/s 739 mmHg 49%
    10:00 +11°C° 0 mm 3 m/s 739 mmHg 45%
    11:00 +12°C° 0 mm 3 m/s 739 mmHg 42%
    12:00 +13°C° 0 mm 4 m/s 739 mmHg 38%
    13:00 +13°C° 0 mm 4 m/s 739 mmHg 37%
    14:00 +14°C° 0 mm 3 m/s 739 mmHg 37%
    15:00 +14°C° 0 mm 3 m/s 739 mmHg 37%
    16:00 +14°C° 0 mm 3 m/s 740 mmHg 40%
    17:00 +14°C° 0 mm 2 m/s 740 mmHg 44%
    18:00 +14°C° 0 mm 2 m/s 740 mmHg 48%
    19:00 +12°C° 0 mm 2 m/s 740 mmHg 50%
    20:00 +11°C° 0 mm 1 m/s 741 mmHg 51%
    21:00 +9°C° 0 mm 1 m/s 741 mmHg 53%
    22:00 +8°C° 0 mm 2 m/s 741 mmHg 55%
    23:00 +7°C° 0 mm 2 m/s 741 mmHg 57%

    Mâine, 24 Aprilie, Miercuri

    Timp Temperatura Precipitaţii Vânt Presiune Umiditate
    00:00 +7°C° 0 mm 2 m/s 741 mmHg 58%
    01:00 +7°C° 0 mm 2 m/s 741 mmHg 59%
    02:00 +7°C° 0 mm 2 m/s 741 mmHg 59%
    03:00 +6°C° 0 mm 2 m/s 741 mmHg 59%
    04:00 +6°C° 0 mm 2 m/s 742 mmHg 60%
    05:00 +6°C° 0 mm 2 m/s 742 mmHg 60%
    06:00 +6°C° 0 mm 2 m/s 742 mmHg 60%
    07:00 +9°C° 0 mm 3 m/s 742 mmHg 55%
    08:00 +11°C° 0 mm 3 m/s 741 mmHg 49%
    09:00 +13°C° 0 mm 3 m/s 741 mmHg 44%
    10:00 +14°C° 0 mm 3 m/s 741 mmHg 42%
    11:00 +16°C° 0 mm 3 m/s 741 mmHg 41%
    12:00 +17°C° 0 mm 4 m/s 741 mmHg 39%
    13:00 +17°C° 0 mm 4 m/s 740 mmHg 40%
    14:00 +17°C° 0 mm 4 m/s 740 mmHg 42%
    15:00 +17°C° 0 mm 4 m/s 740 mmHg 43%
    16:00 +15°C° 0 mm 4 m/s 740 mmHg 47%
    17:00 +16°C° 0 mm 3 m/s 740 mmHg 52%
    18:00 +14°C° 0 mm 3 m/s 740 mmHg 56%
    19:00 +13°C° 0 mm 3 m/s 740 mmHg 60%
    20:00 +11°C° 0 mm 3 m/s 741 mmHg 64%
    21:00 +10°C° 0 mm 2 m/s 741 mmHg 68%
    22:00 +10°C° 0 mm 2 m/s 741 mmHg 68%
    23:00 +10°C° 0 mm 3 m/s 741 mmHg 68%

    Poimâine, 25 Aprilie, Joi

    Timp Temperatura Precipitaţii Vânt Presiune Umiditate
    00:00 +10°C° 0 mm 3 m/s 741 mmHg 68%
    01:00 +9°C° 0 mm 3 m/s 741 mmHg 68%
    02:00 +9°C° 0 mm 3 m/s 740 mmHg 68%
    03:00 +9°C° 0 mm 3 m/s 740 mmHg 68%
    04:00 +9°C° 0 mm 3 m/s 740 mmHg 67%
    05:00 +9°C° 0 mm 3 m/s 740 mmHg 66%
    06:00 +9°C° 0 mm 3 m/s 741 mmHg 66%
    07:00 +11°C° 0 mm 3 m/s 740 mmHg 63%
    08:00 +12°C° 0 mm 3 m/s 740 mmHg 60%
    09:00 +13°C° 0 mm 3 m/s 740 mmHg 58%
    10:00 +16°C° 0 mm 3 m/s 740 mmHg 55%
    11:00 +17°C° 0 mm 3 m/s 740 mmHg 51%
    12:00 +19°C° 0 mm 3 m/s 740 mmHg 48%
    13:00 +19°C° 0.1 mm 3 m/s 739 mmHg 49%
    14:00 +19°C° 0.1 mm 3 m/s 739 mmHg 49%
    15:00 +19°C° 0.1 mm 3 m/s 739 mmHg 49%
    16:00 +18°C° 0.2 mm 2 m/s 739 mmHg 53%
    17:00 +18°C° 0.2 mm 2 m/s 739 mmHg 57%
    18:00 +17°C° 0.2 mm 2 m/s 739 mmHg 61%
    19:00 +16°C° 0 mm 1 m/s 739 mmHg 65%
    20:00 +14°C° 0 mm 1 m/s 739 mmHg 69%
    21:00 +13°C° 0 mm 1 m/s 740 mmHg 73%
    22:00 +13°C° 0 mm 1 m/s 739 mmHg 74%
    23:00 +12°C° 0 mm 1 m/s 739 mmHg 75%

    26 Aprilie, Vineri

    Timp Temperatura Precipitaţii Vânt Presiune Umiditate
    00:00 +12°C° 0 mm 1 m/s 739 mmHg 76%
    01:00 +11°C° 0 mm 1 m/s 739 mmHg 75%
    02:00 +11°C° 0 mm 1 m/s 739 mmHg 75%
    03:00 +11°C° 0 mm 1 m/s 739 mmHg 75%
    04:00 +11°C° 0 mm 1 m/s 739 mmHg 75%
    05:00 +11°C° 0 mm 1 m/s 739 mmHg 74%
    06:00 +11°C° 0 mm 1 m/s 739 mmHg 74%
    07:00 +13°C° 0 mm 1 m/s 738 mmHg 68%
    08:00 +15°C° 0 mm 2 m/s 738 mmHg 62%
    09:00 +17°C° 0 mm 2 m/s 738 mmHg 56%
    10:00 +18°C° 0 mm 3 m/s 738 mmHg 52%
    11:00 +19°C° 0 mm 4 m/s 738 mmHg 49%
    12:00 +20°C° 0 mm 4 m/s 737 mmHg 45%
    13:00 +20°C° 0 mm 5 m/s 737 mmHg 45%
    14:00 +21°C° 0 mm 5 m/s 737 mmHg 44%
    15:00 +21°C° 0 mm 5 m/s 736 mmHg 44%
    16:00 +20°C° 0 mm 5 m/s 736 mmHg 48%
    17:00 +19°C° 0 mm 4 m/s 736 mmHg 52%
    18:00 +19°C° 0 mm 4 m/s 736 mmHg 57%
    19:00 +17°C° 0 mm 3 m/s 737 mmHg 60%
    20:00 +14°C° 0 mm 3 m/s 737 mmHg 64%
    21:00 +14°C° 0 mm 2 m/s 737 mmHg 67%
    22:00 +13°C° 0 mm 2 m/s 737 mmHg 68%
    23:00 +13°C° 0 mm 2 m/s 737 mmHg 69%

    27 Aprilie, Sâmbătă

    Timp Temperatura Precipitaţii Vânt Presiune Umiditate
    00:00 +12°C° 0 mm 2 m/s 737 mmHg 69%
    01:00 +12°C° 0 mm 2 m/s 737 mmHg 70%
    02:00 +10°C° 0 mm 2 m/s 737 mmHg 70%
    03:00 +10°C° 0 mm 2 m/s 736 mmHg 71%
    04:00 +10°C° 0 mm 2 m/s 736 mmHg 71%
    05:00 +10°C° 0 mm 2 m/s 736 mmHg 71%
    06:00 +10°C° 0 mm 2 m/s 736 mmHg 71%
    07:00 +13°C° 0 mm 2 m/s 736 mmHg 63%
    08:00 +14°C° 0 mm 3 m/s 736 mmHg 54%
    09:00 +18°C° 0 mm 4 m/s 736 mmHg 46%
    10:00 +17°C° 0 mm 5 m/s 736 mmHg 45%
    11:00 +19°C° 0 mm 5 m/s 735 mmHg 44%
    12:00 +20°C° 0 mm 5 m/s 735 mmHg 43%
    13:00 +21°C° 0 mm 5 m/s 735 mmHg 44%
    14:00 +21°C° 0 mm 5 m/s 735 mmHg 44%
    15:00 +21°C° 0 mm 5 m/s 734 mmHg 45%
    16:00 +20°C° 0 mm 5 m/s 734 mmHg 49%
    17:00 +20°C° 0 mm 4 m/s 734 mmHg 54%
    18:00 +19°C° 0 mm 4 m/s 734 mmHg 58%
    19:00 +17°C° 0 mm 3 m/s 734 mmHg 62%
    20:00 +14°C° 0 mm 3 m/s 735 mmHg 66%
    21:00 +12°C° 0 mm 3 m/s 735 mmHg 69%
    22:00 +13°C° 0 mm 2 m/s 735 mmHg 69%
    23:00 +12°C° 0 mm 2 m/s 734 mmHg 69%

    28 Aprilie, Duminică

    Timp Temperatura Precipitaţii Vânt Presiune Umiditate
    00:00 +11°C° 0 mm 1 m/s 734 mmHg 69%
    01:00 +11°C° 0 mm 1 m/s 734 mmHg 69%
    02:00 +10°C° 0 mm 1 m/s 734 mmHg 69%
    03:00 +9°C° 0 mm 0 m/s 734 mmHg 69%
    04:00 +9°C° 0 mm 0 m/s 734 mmHg 69%
    05:00 +9°C° 0 mm 0 m/s 734 mmHg 69%
    06:00 +9°C° 0 mm 0 m/s 734 mmHg 69%
    07:00 +13°C° 0 mm 1 m/s 734 mmHg 64%
    08:00 +15°C° 0 mm 1 m/s 733 mmHg 59%
    09:00 +18°C° 0 mm 1 m/s 733 mmHg 53%
    10:00 +18°C° 0 mm 2 m/s 733 mmHg 51%
    11:00 +20°C° 0 mm 2 m/s 733 mmHg 49%
    12:00 +21°C° 0 mm 2 m/s 733 mmHg 47%
    13:00 +21°C° 0 mm 2 m/s 733 mmHg 46%
    14:00 +23°C° 0 mm 2 m/s 732 mmHg 45%
    15:00 +23°C° 0 mm 2 m/s 732 mmHg 44%
    16:00 +23°C° 0 mm 2 m/s 732 mmHg 48%
    17:00 +21°C° 0 mm 2 m/s 732 mmHg 53%
    18:00 +20°C° 0 mm 2 m/s 732 mmHg 57%
    19:00 +20°C° 0.1 mm 1 m/s 733 mmHg 63%
    20:00 +18°C° 0.1 mm 1 m/s 733 mmHg 68%
    21:00 +15°C° 0.1 mm 1 m/s 733 mmHg 73%
    22:00 +15°C° 0.1 mm 1 m/s 733 mmHg 74%
    23:00 +14°C° 0.1 mm 1 m/s 733 mmHg 75%
    Arată mai mult